Flag for Switzerland Weather past 2 weeks in Grenchen, Solothurn, Switzerland

Now
54 °F

Cool.


Feels Like: 50 °F
Forecast: 35 / 62 °F
Wind: 18 mph from East

Location: Grenchen

Current Time: Apr 18, 2015 at 5:40:21 PM

Latest Report: Apr 18, 2015 at 5:00 PM


Visibility: N/A

Pressure: 30.12 "Hg

Humidity: 45%

Dew point: 34 °F

Location of GrenchenLocation

Historic Weather in Grenchen — Graph

°F

Grenchen temperature yesterday

Maximum temperature yesterday: 57 °F (at 4:00 PM)
Minimum temperature yesterday: 48 °F (at 12:00 AM)
Average temperature yesterday: 53 °F

Past Weeks' High & Low Weather Summary

 TemperatureHumidityPressure
High73 °F (Apr 15, 5:00 PM)100% (Apr 10, 7:00 AM)30.60 "Hg (Apr 10, 7:00 AM)
Low28 °F (Apr 7, 7:00 AM)23% (Apr 8, 3:00 PM)29.85 "Hg (Apr 4, 5:00 PM)
Average48 °F70%30.26 "Hg
* Reported Apr 3 4:00 PM — Apr 18 4:00 PM, Grenchen, Weather by CustomWeather, © 2015

Note: Actual official high and low records may vary slightly from our data, if they occured in-between our weather recording intervals... More about our weather records

Advertising

Grenchen weather history for previous 24 hours

 ConditionsComfort  
Time TempWeatherWind HumidityBarometerVisibility
4:00 PM
Sat, Apr 18
54 °FCool.20 mph49%30.14 "HgN/A
3:00 PM54 °FCool.18 mph54%30.14 "HgN/A
2:00 PM54 °FCool.18 mph57%30.14 "HgN/A
1:00 PM53 °FCool.18 mph60%30.16 "HgN/A
12:00 PM51 °FCool.21 mph62%30.17 "HgN/A
11:00 AM49 °FCool.17 mph70%30.16 "HgN/A
10:00 AM47 °FCool.16 mph72%30.15 "HgN/A
9:00 AM46 °FCool.15 mph78%30.14 "HgN/A
8:00 AM45 °FQuite cool.13 mph87%30.14 "HgN/A
7:00 AM46 °FCool.10 mph91%30.12 "HgN/A
6:00 AM47 °FCool.9 mph91%30.10 "HgN/A
5:00 AM47 °FCool.7 mph93%30.10 "HgN/A
4:00 AM47 °FCool.13 mph92%30.09 "HgN/A
3:00 AM51 °FCool.2 mph99%30.06 "HgN/A
2:00 AM51 °FCool.2 mph100%30.07 "HgN/A
1:00 AM51 °FCool.2 mph99%30.06 "HgN/A
12:00 AM52 °FCool.2 mph99%30.05 "HgN/A
11:00 PM
Fri, Apr 17
52 °FCool.2 mph99%30.03 "HgN/A
10:00 PM53 °FCool.2 mph97%30.02 "HgN/A
9:00 PM53 °FCool.6 mph94%30.00 "HgN/A
8:00 PM55 °FCool.7 mph86%29.98 "HgN/A
7:00 PM56 °FCool.8 mph84%29.97 "HgN/A
6:00 PM56 °FCool.12 mph82%29.96 "HgN/A
5:00 PM56 °FCool.15 mph82%29.97 "HgN/A
Weather by CustomWeather, © 2015

See weather overviewHow to use our weather pages